[[{"header":{"parameterUnit":"m.s-1","parameterCategory":1,"la1":30.2991,"la2":30.254,"lo1":-89.0895,"lo2":-89.0444,"dy":0.0017,"dx":0.0017,"nx":28,"ny":28,"refTime":"2024-05-30T03:00:00:Z","depth":0,"parameterNumber":2,"parameterNumberName":"U-component_of_WINDS"},"data":[0,0,0,0,0,0,0,0,0,0,0,0,0,0,0,0,0,0,0,0,0,0,0,0,0,0,0,0,0,0,0,0,0,0,0,0,0,0,0,0,0,0,0,0,0,0,0,0,0,0,0,0,0,0,0,0,0,0,-4.1213,-4.1214,0,-4.1254,-4.1255,-4.1255,-4.1148,-4.1145,-4.1141,-4.1138,-4.1179,-4.1183,-4.1188,0,0,0,0,0,0,0,0,0,0,0,0,0,-4.1043,-4.1046,-4.1213,-4.1214,-4.1214,-4.1254,-4.1255,-4.1255,-4.1149,-4.1145,-4.1141,-4.1137,-4.1178,-4.1183,-4.1188,0,0,0,0,0,0,0,0,0,0,0,0,0,-4.1104,-4.1048,-4.1213,-4.1166,-4.1162,-4.1254,-4.1255,-4.1255,-4.115,-4.1144,-4.1139,-4.1135,-4.1176,-4.1182,-4.1189,-4.1328,0,0,-4.1208,-4.1211,0,0,0,0,0,0,0,0,-4.11,-4.111,-4.1172,-4.1169,-4.1165,-4.1191,-4.1209,-4.128,-4.1151,-4.1154,-4.1138,-4.1132,-4.1187,-4.1192,-4.1211,-4.133,-4.1331,-4.1208,-4.1212,-4.1215,-4.1217,0,0,0,0,0,0,0,-4.1096,-4.1108,-4.1229,-4.1173,-4.1169,-4.1143,-4.1146,-4.1222,-4.1198,-4.1154,-4.1146,-4.1152,-4.1184,-4.1205,-4.1211,-4.1332,-4.1208,-4.1214,-4.1218,-4.122,-4.1569,-4.1574,0,0,0,0,0,0,-4.1098,-4.1105,-4.1228,-4.123,-4.112,-4.115,-4.1153,-4.1188,-4.1197,-4.1194,-4.1157,-4.1147,-4.1197,-4.1204,-4.1212,-4.1377,-4.1215,-4.1221,-4.1224,-4.1563,-4.157,-4.1576,0,0,0,0,0,0,-4.1095,-4.111,-4.1226,-4.1166,-4.1178,-4.1158,-4.1198,-4.1191,-4.1212,-4.1199,-4.1194,-4.1182,-4.1193,-4.1203,-4.13,-4.1377,-4.1224,-4.1229,-4.1557,-4.1565,-4.1573,-4.1707,0,0,0,0,0,0,-4.109,-4.111,-4.1162,-4.1168,-4.1182,-4.1314,-4.1202,-4.1196,-4.1223,-4.1211,-4.1222,-4.1219,-4.119,-4.1291,-4.1307,-4.1383,-4.1234,-4.155,-4.156,-4.157,-4.1695,-4.1719,-4.1738,0,0,0,0,0,-4.1085,-4.1198,-4.1165,-4.1181,-4.1248,-4.1319,-4.1327,-4.1291,-4.123,-4.1283,-4.1275,-4.1219,-4.1366,-4.1302,-4.1318,-4.1397,-4.1545,-4.1557,-4.1569,-4.1686,-4.1714,-4.1738,0,0,0,0,0,0,-4.1201,-4.1198,-4.1162,-4.128,-4.1301,-4.1301,-4.1366,-4.1322,-4.136,-4.1348,-4.1301,-4.1305,-4.1411,-4.1413,-4.1343,-4.1533,-4.1445,-4.1461,-4.1528,-4.1554,-4.1576,-4.1573,-4.124,0,0,0,0,0,-4.1241,-4.1299,-4.1293,-4.1398,-4.141,-4.1387,-4.1416,-4.1387,-4.1407,-4.1415,-4.1414,-4.1435,-4.1485,-4.152,-4.1566,-4.1695,-4.1697,-4.1758,-4.1779,-4.1797,-4.1811,-4.1881,-4.1909,-4.1616,-4.1616,-4.1616,0,0,-4.1323,-4.1328,-4.1368,-4.1421,-4.1434,-4.1496,-4.1395,-4.1464,-4.1509,-4.1425,-4.1517,-4.1517,-4.1537,-4.1652,-4.1702,-4.1657,-4.1893,-4.1812,-4.1827,-4.1832,-4.1897,-4.1925,-4.1949,-4.1624,-4.1623,-4.1622,0,0,-4.1504,-4.1514,-4.1603,-4.1618,-4.1639,-4.1623,-4.1644,-4.1652,-4.1649,-4.174,-4.1679,-4.1732,-4.182,-4.1838,-4.1858,-4.2048,-4.1999,-4.2064,-4.2177,-4.2246,-4.2269,-4.2289,-4.2358,-4.2383,-4.2079,-4.2079,-4.208,0,-4.1603,-4.1694,-4.1654,-4.1728,-4.1754,-4.1681,-4.1772,-4.1788,-4.1823,-4.1842,-4.1792,-4.1902,-4.1911,-4.2029,-4.2075,-4.2094,-4.2118,-4.2063,-4.2269,-4.2289,-4.2307,-4.2372,-4.2398,-4.2087,-4.2086,-4.2086,-4.2085,0,-4.1816,-4.188,-4.195,-4.1986,-4.202,-4.2102,-4.2074,-4.2113,-4.2081,-4.2071,-4.2166,-4.2173,-4.222,-4.2246,-4.2215,-4.2361,-4.2332,-4.2276,-4.2186,-4.2343,-4.2404,-4.2429,-4.2099,-4.2096,-4.2093,-4.2091,0,0,-4.2071,-4.2086,-4.2112,-4.2128,-4.2147,-4.2195,-4.2274,-4.2321,-4.2356,-4.2382,-4.2448,-4.2525,-4.2473,-4.2497,-4.2467,-4.2528,-4.268,-4.2464,-4.2464,-4.2505,-4.2842,-4.2885,-4.2914,-4.2647,-4.2651,-4.2655,-4.284,0,-4.2251,-4.2388,-4.2354,-4.2489,-4.2549,-4.2481,-4.255,-4.2569,-4.2561,-4.2611,-4.2602,-4.2658,-4.2585,-4.2599,-4.2656,-4.2649,-4.2747,-4.2635,-4.2708,-4.2711,-4.2706,-4.2946,-4.2991,-4.3166,-4.2864,-4.2868,-4.2871,0,-4.2479,-4.2516,-4.2658,-4.2667,-4.2691,-4.2754,-4.2794,-4.2842,-4.2862,-4.2853,-4.288,-4.2839,-4.2918,-4.2827,-4.2935,-4.286,-4.2888,-4.289,-4.2896,-4.2902,-4.2801,-4.2959,-4.322,-4.3247,-4.2907,-4.2904,-4.2902,0,-4.2653,-4.2738,-4.2834,-4.2849,-4.2863,-4.2909,-4.2917,-4.2932,-4.2963,-4.2998,-4.3018,-4.3062,-4.3087,-4.3122,-4.3094,-4.3031,-4.3208,-4.3114,-4.3203,-4.3204,-4.3243,-4.3241,-4.3514,-4.326,-4.326,-4.3259,-4.3259,0,-4.2858,-4.2948,-4.2912,-4.2971,-4.307,-4.3031,-4.3129,-4.3129,-4.3144,-4.3202,-4.3145,-4.3201,-4.3161,-4.3213,-4.3192,-4.3286,-4.3297,-4.3292,-4.3286,-4.3298,-4.3299,-4.3316,-4.3303,-4.3266,-4.3265,-4.3263,-4.3262,0,-4.3069,-4.3049,-4.3149,-4.3154,-4.3158,-4.323,-4.3234,-4.329,-4.3278,-4.3353,-4.3368,-4.3351,-4.341,-4.3386,-4.3448,-4.3434,-4.3554,-4.3531,-4.3548,-4.3542,-4.3632,-4.3624,-4.3926,-4.3964,-4.3685,-4.3688,-4.369,0,-4.3202,-4.3269,-4.3282,-4.3317,-4.3329,-4.3386,-4.3418,-4.3382,-4.3417,-4.3447,-4.3499,-4.3553,-4.3594,-4.3692,-4.3685,-4.3733,-4.3711,-4.3813,-4.3718,-4.3729,-4.3714,-4.3711,-4.3718,-4.3833,-4.3836,-4.3839,-4.3841,0,-4.3439,-4.3426,-4.3474,-4.3519,-4.3559,-4.3592,-4.362,-4.3652,-4.3618,-4.3661,-4.3721,-4.3753,-4.3818,-4.3873,-4.3915,-4.3923,-4.3878,-4.3871,-4.3894,-4.3908,-4.3915,-4.3913,-4.3601,-4.3864,-4.3862,-4.386,-4.3859,-4.3858,-4.3616,-4.3673,-4.3692,-4.3747,-4.3765,-4.3793,-4.3846,-4.3842,-4.3892,-4.3942,-4.3917,-4.3988,-4.4007,-4.406,-4.4075,-4.4129,-4.4089,-4.4122,-4.4131,-4.414,-4.4152,-4.3906,-4.4137,-4.4136,-4.4135,-4.4135,-4.4134,0,-4.3852,-4.3861,-4.3912,-4.3954,-4.3998,-4.3951,-4.3981,-4.4021,-4.4083,-4.4106,-4.4148,-4.4218,-4.4272,-4.427,-4.4319,-4.4363,-4.4344,-4.4378,-4.4374,-4.4377,-4.4185,-4.416,-4.4393,-4.4393,-4.4393,-4.4393,-4.4393,-4.4393,-4.3979,-4.4075,-4.4064,-4.4168,-4.4176,-4.4245,-4.4266,-4.4292,-4.431,-4.4391,-4.4435,-4.4433,-4.4446,-4.4497,-4.4544,-4.4542,-4.4563,-4.4606,-4.4596,-4.4416,-4.4391,-4.4366,-4.4343,-4.461,-4.4611,-4.4784,-4.4786,-4.4787]},{"header":{"parameterUnit":"m.s-1","parameterCategory":1,"la1":30.2991,"la2":30.254,"lo1":-89.0895,"lo2":-89.0444,"dy":0.0017,"dx":0.0017,"nx":28,"ny":28,"refTime":"2024-05-30T03:00:00:Z","depth":0,"parameterNumber":3,"parameterNumberName":"V-component_of_WINDS"},"data":[0,0,0,0,0,0,0,0,0,0,0,0,0,0,0,0,0,0,0,0,0,0,0,0,0,0,0,0,0,0,0,0,0,0,0,0,0,0,0,0,0,0,0,0,0,0,0,0,0,0,0,0,0,0,0,0,0,0,-1.9892,-1.9891,0,-1.9847,-1.9846,-1.9846,-1.9799,-1.9798,-1.9798,-1.9797,-1.9751,-1.975,-1.975,0,0,0,0,0,0,0,0,0,0,0,0,0,-1.9936,-1.9935,-1.9892,-1.9891,-1.9891,-1.9847,-1.9846,-1.9846,-1.9799,-1.9798,-1.9798,-1.9797,-1.9751,-1.9751,-1.975,0,0,0,0,0,0,0,0,0,0,0,0,0,-1.9906,-1.9935,-1.9892,-1.9862,-1.9859,-1.9847,-1.9846,-1.9845,-1.9799,-1.9798,-1.9797,-1.9796,-1.9752,-1.9751,-1.975,-1.9763,0,0,-1.9747,-1.9746,0,0,0,0,0,0,0,0,-1.9908,-1.9905,-1.9867,-1.9864,-1.9861,-1.9827,-1.9845,-1.9818,-1.98,-1.9822,-1.9797,-1.9796,-1.9777,-1.9774,-1.9768,-1.9761,-1.9759,-1.9747,-1.9746,-1.9746,-1.9746,0,0,0,0,0,0,0,-1.991,-1.9906,-1.9874,-1.9866,-1.9863,-1.9851,-1.9845,-1.984,-1.9806,-1.982,-1.9816,-1.9812,-1.9775,-1.9769,-1.9766,-1.9759,-1.9747,-1.9746,-1.9745,-1.9745,-1.9759,-1.976,0,0,0,0,0,0,-1.9917,-1.9909,-1.9875,-1.9873,-1.9882,-1.9851,-1.9845,-1.9839,-1.9806,-1.9799,-1.9813,-1.981,-1.9771,-1.9768,-1.9765,-1.9777,-1.9746,-1.9745,-1.9744,-1.9758,-1.9759,-1.976,0,0,0,0,0,0,-1.9918,-1.9914,-1.9877,-1.9889,-1.9884,-1.9851,-1.9845,-1.9839,-1.9832,-1.98,-1.9794,-1.9812,-1.977,-1.9766,-1.9764,-1.9775,-1.9745,-1.9744,-1.9757,-1.9759,-1.976,-1.9804,0,0,0,0,0,0,-1.9919,-1.9915,-1.992,-1.989,-1.9883,-1.9877,-1.9846,-1.9839,-1.9831,-1.9827,-1.9798,-1.9792,-1.9769,-1.9765,-1.9763,-1.9773,-1.9743,-1.9756,-1.9758,-1.976,-1.9801,-1.9807,-1.9811,0,0,0,0,0,-1.9921,-1.9935,-1.9921,-1.9917,-1.9889,-1.9878,-1.9874,-1.9847,-1.9832,-1.9837,-1.9816,-1.9793,-1.9774,-1.9766,-1.9762,-1.9773,-1.9755,-1.9757,-1.9759,-1.9799,-1.9806,-1.9811,0,0,0,0,0,0,-1.9968,-1.993,-1.9914,-1.9919,-1.9902,-1.987,-1.9876,-1.9855,-1.9842,-1.9839,-1.9806,-1.98,-1.9801,-1.9787,-1.9777,-1.9783,-1.9762,-1.9763,-1.9793,-1.9799,-1.9804,-1.9807,-1.9742,0,0,0,0,0,-1.9978,-1.9973,-1.994,-1.9947,-1.9939,-1.9909,-1.9903,-1.9884,-1.9865,-1.9858,-1.9837,-1.9819,-1.9809,-1.9803,-1.9792,-1.9799,-1.9792,-1.9805,-1.981,-1.9814,-1.9816,-1.9817,-1.9822,-1.9767,-1.9767,-1.9767,0,0,-2.0001,-1.9979,-1.9978,-1.9956,-1.9941,-1.9935,-1.9903,-1.9899,-1.9895,-1.9857,-1.9853,-1.9837,-1.9815,-1.9817,-1.9817,-1.9805,-1.9829,-1.9816,-1.982,-1.9819,-1.982,-1.9825,-1.9829,-1.9769,-1.9769,-1.9768,0,0,-2.0038,-2.0022,-2.0025,-2.001,-1.9987,-1.9967,-1.9968,-1.9939,-1.9926,-1.9922,-1.9893,-1.9887,-1.9871,-1.9856,-1.9847,-1.9877,-1.9856,-1.9874,-1.99,-1.9902,-1.9906,-1.991,-1.992,-1.9924,-1.9876,-1.9876,-1.9876,0,-2.0068,-2.0059,-2.0029,-2.0027,-2.0017,-1.9982,-1.9985,-1.9972,-1.9947,-1.9941,-1.9928,-1.9906,-1.9889,-1.9887,-1.9894,-1.9887,-1.9887,-1.9877,-1.9908,-1.9911,-1.9914,-1.9924,-1.9928,-1.9879,-1.9878,-1.9878,-1.9878,0,-2.0097,-2.0091,-2.0096,-2.0073,-2.0064,-2.0064,-2.0034,-2.0028,-2.0009,-1.999,-1.9985,-1.9963,-1.9947,-1.9945,-1.9926,-1.9939,-1.9932,-1.9914,-1.9892,-1.9922,-1.993,-1.9934,-1.9882,-1.9881,-1.988,-1.988,0,0,-2.0163,-2.0122,-2.0125,-2.0113,-2.0084,-2.0079,-2.0077,-2.006,-2.0056,-2.0039,-2.0036,-2.0023,-2.0005,-1.9994,-1.9974,-1.9975,-1.9999,-1.9956,-1.9955,-1.9965,-2.0011,-2.0025,-2.003,-1.9985,-1.9986,-1.9986,-2.0013,0,-2.0195,-2.019,-2.0163,-2.0165,-2.0158,-2.0124,-2.0122,-2.0104,-2.0086,-2.0077,-2.0057,-2.0047,-2.0025,-2.0018,-2.0018,-1.9997,-2.0008,-1.9994,-1.9981,-1.9981,-1.9988,-2.0034,-2.0049,-2.0075,-2.0016,-2.0016,-2.0017,0,-2.0232,-2.0218,-2.0219,-2.019,-2.0186,-2.0185,-2.0167,-2.0159,-2.0138,-2.0124,-2.0111,-2.0088,-2.0083,-2.0061,-2.0054,-2.0045,-2.0037,-2.0026,-2.0026,-2.0024,-2.0001,-2.0032,-2.0083,-2.0087,-2.0022,-2.0021,-2.0021,0,-2.028,-2.026,-2.0258,-2.0249,-2.0215,-2.0215,-2.0201,-2.0178,-2.0169,-2.0154,-2.0147,-2.0132,-2.0123,-2.011,-2.0083,-2.007,-2.0078,-2.0055,-2.0066,-2.0066,-2.0069,-2.0069,-2.0119,-2.0065,-2.0065,-2.0065,-2.0065,0,-2.0318,-2.0321,-2.0279,-2.0278,-2.0279,-2.0247,-2.0249,-2.0231,-2.0211,-2.0205,-2.0175,-2.017,-2.0134,-2.0125,-2.0103,-2.01,-2.0096,-2.0084,-2.0079,-2.0087,-2.0088,-2.0082,-2.0079,-2.0066,-2.0066,-2.0066,-2.0065,0,-2.0372,-2.0344,-2.034,-2.0307,-2.0299,-2.0301,-2.0273,-2.027,-2.0249,-2.0242,-2.0239,-2.0206,-2.0194,-2.0165,-2.0145,-2.013,-2.0132,-2.0121,-2.0139,-2.0135,-2.0148,-2.0147,-2.0195,-2.0199,-2.0144,-2.0144,-2.0145,0,-2.0398,-2.0399,-2.0366,-2.036,-2.0347,-2.0338,-2.0329,-2.0297,-2.0288,-2.0263,-2.0263,-2.0248,-2.0235,-2.0216,-2.019,-2.0174,-2.0163,-2.0181,-2.016,-2.0168,-2.0162,-2.0163,-2.0162,-2.0185,-2.0186,-2.0187,-2.0187,0,-2.0448,-2.0434,-2.0422,-2.0405,-2.0395,-2.038,-2.0363,-2.036,-2.0324,-2.0316,-2.0303,-2.0292,-2.0271,-2.0256,-2.0236,-2.0221,-2.0198,-2.0194,-2.0195,-2.0204,-2.0214,-2.0208,-2.0151,-2.0193,-2.0192,-2.0192,-2.0192,-2.0191,-2.0488,-2.0486,-2.0463,-2.045,-2.0434,-2.0419,-2.0415,-2.0393,-2.0381,-2.0362,-2.0344,-2.0332,-2.0309,-2.0279,-2.0265,-2.0255,-2.0244,-2.0246,-2.0247,-2.0248,-2.0251,-2.0216,-2.0251,-2.0251,-2.0251,-2.0251,-2.0251,0,-2.0535,-2.0518,-2.0507,-2.0484,-2.0474,-2.0453,-2.0434,-2.0426,-2.0416,-2.0397,-2.0384,-2.0368,-2.0353,-2.0326,-2.0308,-2.0305,-2.0294,-2.0302,-2.0301,-2.0298,-2.0263,-2.0263,-2.0311,-2.0311,-2.0311,-2.0311,-2.0311,-2.0311,-2.0559,-2.0555,-2.0538,-2.0526,-2.0508,-2.0496,-2.0487,-2.0472,-2.0456,-2.044,-2.0427,-2.041,-2.0386,-2.0367,-2.0352,-2.0344,-2.0339,-2.035,-2.0339,-2.0306,-2.0301,-2.0295,-2.0295,-2.0349,-2.0349,-2.0374,-2.0374,-2.0375]}]]